#timestamp,LO_Frequency,Hit,StdDev 
1567526415.0,286047000.0,N
1567526415.9,286047000.0,N
1567526435.8,286047000.1,N
1567526455.6,286047002.1,N
1567526475.4,286047001.9,N
1567526495.3,286047001.7,N
1567526515.1,286047002.5,N
1567526535.9,286047001.6,N
1567526555.7,286047000.2,N
1567526575.5,286047000.1,N
1567526595.4,286047000.2,N
1567526615.2,286046999.7,N
1567526635.0,286047002.8,N
1567526636.0,286047002.8,N
1567526655.8,286047002.2,N
1567526675.6,286047002.2,N
1567526695.5,286047002.1,N
1567526715.3,286046999.7,N
1567526735.1,286047004.4,Y
1567526755.9,286047000.4,P
1567526775.7,286046999.3,N
1567526795.6,286046999.4,N
1567526815.4,286046999.1,N
1567526835.2,286046999.6,N
1567526855.1,286046999.2,N
1567526856.0,286046999.2,N
1567526875.8,286046998.9,N
1567526895.7,286046999.8,N
1567526915.5,286047000.0,N
1567526935.3,286047000.1,N
1567526955.2,286047002.8,Y
1567526975.0,286047001.5,P
1567526975.9,286047001.5,N
1567526995.7,286047002.1,N
1567527015.6,286046999.7,N
1567527035.4,286047000.2,N
1567527055.3,286047000.0,N
1567527075.1,286047000.5,N
1567527076.0,286047000.5,N
1567527095.8,286047001.2,N
1567527115.7,286047000.7,N
1567527135.5,286046998.4,N
1567527155.4,286046998.2,N
1567527175.2,286046998.7,N
1567527195.0,286046999.0,N
1567527195.9,286046999.0,N
1567527215.8,286046998.7,N
1567527235.6,286046999.1,N
1567527255.4,286046996.8,N
1567527275.3,286046996.6,N
1567527295.1,286046997.0,N
1567527345.9,286046995.3,E
1567527355.8,286046998.8,N
1567527375.6,286047000.6,P
1567527395.5,286047000.4,N
1567527415.3,286047000.1,N
1567527435.1,286047000.5,N
1567527455.9,286047000.2,N
1567527475.7,286046999.8,N
1567527495.6,286047000.5,N
1567527515.4,286047000.6,N
1567527535.2,286046999.7,N
1567527555.1,286046999.7,N
1567527556.0,286046999.7,N
1567527575.8,286047000.5,N
1567527595.7,286047011.9,Y
1567527645.5,286047000.7,E
1567527655.5,286046999.9,N
1567527675.3,286046998.1,P
1567527695.1,286047000.6,N
1567527715.9,286047000.4,N
1567527735.7,286047000.5,N
1567527755.5,286046999.9,N
1567527775.4,286047000.5,N
1567527795.2,286046998.5,N
1567527815.1,286046998.6,N
1567527816.0,286046998.6,N
1567527835.8,286046998.7,N
1567527855.6,286046999.1,N
1567527875.5,286046999.0,N
1567527895.3,286046998.4,N
1567527915.1,286046998.9,N
1567527935.9,286046998.9,N
1567527955.7,286046998.3,N
1567527975.6,286046999.2,N
1567527995.4,286046996.9,Y
1567528015.2,286046999.6,P
1567528035.1,286046996.6,P
1567528036.0,286046996.6,N
1567528055.8,286046997.2,N
1567528075.7,286046996.6,N
1567528095.5,286046997.0,N
1567528115.3,286046996.8,N
1567528135.2,286046999.5,N
1567528155.0,286046995.0,Y
1567528155.9,286046995.0,P
1567528175.7,286046998.2,N
1567528195.6,286046998.5,N
1567528215.4,286047001.1,N
1567528235.3,286046998.9,N
1567528255.1,286046999.8,N
1567528256.0,286046999.8,N
1567528275.8,286046998.6,N
1567528295.7,286046998.1,N
1567528315.5,286047000.2,N
1567528335.4,286047000.0,N
1567528355.2,286046999.9,N
1567528375.0,286047001.7,N
1567528375.9,286047001.7,N
1567528395.8,286047001.6,N
1567528415.6,286047004.4,N
1567528435.4,286047002.9,N
1567528455.3,286047003.8,N
1567528475.1,286047005.5,N
1567528495.9,286047005.8,N
1567528515.7,286047005.5,N
1567528535.5,286047005.4,N
1567528555.4,286047005.5,N
1567528575.2,286047004.7,N
1567528595.1,286047005.2,N
1567528596.0,286047005.2,N
1567528615.8,286047005.0,N
1567528635.6,286047007.1,N
1567528655.5,286047007.0,N
1567528675.3,286047007.4,N
1567528695.1,286047006.7,N
1567528715.9,286047007.5,N
1567528735.7,286047007.6,N
1567528755.6,286047006.9,N
1567528775.4,286047007.2,N
1567528795.2,286047007.1,N
1567528815.1,286047007.6,N
1567528816.0,286047007.6,N
1567528835.8,286047006.0,N
1567528855.7,286047005.8,N
1567528875.5,286047004.7,N
1567528895.3,286047004.7,N
1567528915.2,286047004.8,N
1567528935.0,286047007.6,Y
1567528935.9,286047007.6,P
1567528955.8,286047000.7,N
1567528975.6,286047000.5,N
1567528995.4,286047001.0,N
1567529015.3,286047000.8,N
1567529035.1,286047000.6,N
1567529055.9,286046999.8,N
1567529075.7,286046999.8,N
1567529095.5,286047002.6,N
1567529115.4,286047001.9,N
1567529135.2,286047000.4,N
1567529155.0,286046999.7,N
1567529155.9,286046999.7,N
1567529175.8,286047000.0,N
1567529195.6,286047002.8,N
1567529215.5,286047002.3,N
1567529235.3,286047002.0,N
1567529255.1,286047002.0,N
1567529275.9,286047001.7,N
1567529295.7,286047002.2,N
1567529315.5,286047001.9,N
1567529335.4,286047002.5,N
1567529355.2,286047002.6,N
1567529375.1,286047001.8,N
1567529376.0,286047001.8,N
1567529395.8,286047004.0,N
1567529415.6,286047001.8,N
1567529435.5,286047001.7,N
1567529455.3,286047001.9,N
1567529475.2,286047001.7,N
1567529495.9,286047001.4,N
1567529515.7,286047001.4,N
1567529535.6,286047001.5,N
1567529555.4,286047001.8,N
1567529575.2,286047001.8,N
1567529595.1,286047004.3,Y
1567529596.0,286047004.3,P
1567529615.8,286047000.1,N
1567529635.7,286047000.2,N
1567529655.5,286046999.7,N
1567529675.3,286047000.4,N
1567529695.2,286047002.8,N
1567529715.0,286047002.3,N
1567529715.9,286047002.3,N
1567529735.8,286046999.7,N
1567529755.6,286046999.8,N
1567529775.4,286047002.4,N
1567529795.3,286047002.0,N
1567529815.1,286047002.5,N
1567529835.8,286047002.0,N
1567529855.7,286047001.7,N
1567529875.5,286047002.0,N
1567529895.4,286047001.4,N
1567529915.2,286047002.1,N
1567529935.0,286047002.3,N
1567529935.9,286047002.3,N
1567529955.8,286047001.9,N
1567529975.6,286047002.2,N
1567529995.5,286047001.7,N
